FW4279 Weather Reports


Display with metric or nautical units.
time (UTC)temp
F
wind
direction
speed
MPH
gust
MPH
rain 1hr
in
rain 24hr
in
rain mn
in
humidity
%
barometer
mb
20190721024527 82 129 3.0 10.0 0.00 0.00 0.00 24 1001.7
20190721024018 83 129 6.0 10.0 0.00 0.00 0.00 23 1001.6
20190721023517 83 123 5.0 8.0 0.00 0.00 0.00 23 1001.6
20190721023021 83 144 4.0 8.0 0.00 0.00 0.00 23 1001.6
20190721022513 84 115 3.0 8.0 0.00 0.00 0.00 23 1001.6
20190721022013 84 142 5.0 8.0 0.00 0.00 0.00 22 1001.5
20190721021524 85 131 3.0 9.0 0.00 0.00 0.00 22 1001.5
20190721021015 85 127 4.0 9.0 0.00 0.00 0.00 22 1001.5
20190721020511 86 122 4.0 9.0 0.00 0.00 0.00 21 1001.5
20190721020014 86 110 4.0 10.0 0.00 0.00 0.00 21 1001.5
20190721015511 86 141 5.0 10.0 0.00 0.00 0.00 21 1001.5
20190721015015 86 107 5.0 8.0 0.00 0.00 0.00 21 1001.5
20190721014523 86 158 3.0 7.0 0.00 0.00 0.00 21 1001.4
20190721014010 86 81 2.0 10.0 0.00 0.00 0.00 22 1001.4
20190721013508 86 98 4.0 10.0 0.00 0.00 0.00 21 1001.4
20190721013012 86 107 2.0 10.0 0.00 0.00 0.00 21 1001.4
20190721012512 86 79 2.0 8.0 0.00 0.00 0.00 21 1001.4
20190721012008 86 79 4.0 8.0 0.00 0.00 0.00 21 1001.5
20190721011515 87 66 3.0 8.0 0.00 0.00 0.00 21 1001.4
20190721011011 86 94 4.0 9.0 0.00 0.00 0.00 20 1001.5
20190721010511 87 54 3.0 10.0 0.00 0.00 0.00 21 1001.4
20190721010013 87 56 5.0 11.0 0.00 0.00 0.00 21 1001.4
20190721005510 87 55 5.0 11.0 0.00 0.00 0.00 22 1001.4
20190721005007 87 57 4.0 10.0 0.00 0.00 0.00 21 1001.4
20190721004519 87 73 4.0 10.0 0.00 0.00 0.00 21 1001.4
20190721004005 87 98 2.0 10.0 0.00 0.00 0.00 22 1001.5
20190721003509 87 126 5.0 11.0 0.00 0.00 0.00 21 1001.6
20190721003007 87 89 4.0 12.0 0.00 0.00 0.00 22 1001.5
20190721002504 87 60 3.0 12.0 0.00 0.00 0.00 21 1001.6
20190721002004 87 91 5.0 13.0 0.00 0.00 0.00 22 1001.6
20190721001506 87 98 6.0 13.0 0.00 0.00 0.00 22 1001.5
20190721001003 87 115 4.0 12.0 0.00 0.00 0.00 22 1001.6
20190721000505 87 57 6.0 13.0 0.00 0.00 0.00 22 1001.7
20190721000007 87 131 7.0 13.0 0.00 0.00 0.00 21 1001.7
20190720235501 87 51 4.0 14.0 0.00 0.00 0.00 22 1001.7
20190720235001 87 63 5.0 14.0 0.00 0.00 0.00 22 1001.7
20190720234703 87 55 4.0 14.0 0.00 0.00 0.00 22 1001.8
20190720234103 87 136 6.0 15.0 0.00 0.00 0.00 22 1001.7
20190720233600 87 96 6.0 17.0 0.00 0.00 0.00 22 1001.8
20190720233508 87 123 5.0 17.0 0.00 0.00 0.00 22 1001.8
20190720232558 87 55 5.0 13.0 0.00 0.00 0.00 22 1001.9
20190720232058 87 131 6.0 16.0 0.00 0.00 0.00 22 1001.9
20190720231636 87 53 7.0 17.0 0.00 0.00 0.00 21 1001.9
20190720231103 87 100 7.0 17.0 0.00 0.00 0.00 22 1002.0
20190720230555 87 104 8.0 17.0 0.00 0.00 0.00 22 1001.9
20190720230146 87 66 4.0 16.0 0.00 0.00 0.00 22 1001.9
20190720225555 87 116 7.0 18.0 0.00 0.00 0.00 22 1002.1
20190720225054 87 86 8.0 18.0 0.00 0.00 0.00 22 1002.1
20190720224632 86 38 4.0 17.0 0.00 0.00 0.00 22 1002.1
20190720224057 86 83 7.0 17.0 0.00 0.00 0.00 22 1002.2
20190720223558 86 335 4.0 15.0 0.00 0.00 0.00 22 1002.2
20190720223126 87 47 8.0 19.0 0.00 0.00 0.00 22 1002.2
20190720222551 86 44 8.0 19.0 0.00 0.00 0.00 22 1002.2
20190720222050 87 79 6.0 15.0 0.00 0.00 0.00 22 1002.5
20190720221638 86 113 5.0 13.0 0.00 0.00 0.00 22 1002.5
20190720221055 87 97 8.0 15.0 0.00 0.00 0.00 22 1002.4
20190720220556 87 126 7.0 15.0 0.00 0.00 0.00 23 1002.5
20190720220126 87 46 7.0 17.0 0.00 0.00 0.00 22 1002.6
20190720215546 86 26 7.0 17.0 0.00 0.00 0.00 22 1002.7
20190720215051 86 330 6.0 14.0 0.00 0.00 0.00 23 1002.7
20190720214704 86 14 5.0 14.0 0.00 0.00 0.00 22 1002.8
20190720214043 86 117 6.0 20.0 0.00 0.00 0.00 23 1002.9
20190720213548 86 30 9.0 20.0 0.00 0.00 0.00 23 1002.8
20190720213201 86 58 7.0 13.0 0.00 0.00 0.00 23 1002.9
20190720212541 86 98 5.0 14.0 0.00 0.00 0.00 23 1002.9
20190720212042 85 358 6.0 13.0 0.00 0.00 0.00 23 1003.0
20190720211042 86 19 3.0 14.0 0.00 0.00 0.00 24 1003.2
20190720210543 85 29 7.0 15.0 0.00 0.00 0.00 24 1003.2
20190720210114 86 64 8.0 14.0 0.00 0.00 0.00 23 1003.3
20190720205535 85 33 3.0 11.0 0.00 0.00 0.00 24 1003.5
20190720205034 84 311 5.0 13.0 0.00 0.00 0.00 24 1003.5
20190720204600 84 84 7.0 13.0 0.00 0.00 0.00 24 1003.6
20190720204036 84 6 3.0 12.0 0.00 0.00 0.00 24 1003.6
20190720203541 84 31 2.0 12.0 0.00 0.00 0.00 25 1003.7
20190720203119 83 23 6.0 17.0 0.00 0.00 0.00 25 1003.8
20190720202531 84 74 8.0 14.0 0.00 0.00 0.00 25 1003.8
20190720202029 84 352 7.0 14.0 0.00 0.00 0.00 24 1003.9
20190720201540 83 96 5.0 12.0 0.00 0.00 0.00 25 1003.9
20190720201034 83 55 6.0 13.0 0.00 0.00 0.00 24 1003.9
20190720200532 83 59 6.0 13.0 0.00 0.00 0.00 25 1004.0
20190720200119 83 20 2.0 13.0 0.00 0.00 0.00 25 1004.1
20190720195529 83 53 5.0 12.0 0.00 0.00 0.00 25 1004.1
20190720195024 83 94 5.0 10.0 0.00 0.00 0.00 25 1004.2
20190720194552 82 175 2.0 14.0 0.00 0.00 0.00 26 1004.2
20190720194020 82 75 5.0 11.0 0.00 0.00 0.00 25 1004.3
20190720193527 81 20 2.0 11.0 0.00 0.00 0.00 26 1004.4
20190720193118 81 50 4.0 12.0 0.00 0.00 0.00 27 1004.5
20190720192519 82 13 5.0 12.0 0.00 0.00 0.00 28 1004.5
20190720192025 81 344 3.0 10.0 0.00 0.00 0.00 28 1004.5
20190720191602 80 75 4.0 10.0 0.00 0.00 0.00 28 1004.6
20190720191016 80 100 4.0 8.0 0.00 0.00 0.00 28 1004.7
20190720190525 80 325 3.0 9.0 0.00 0.00 0.00 29 1004.7
20190720190036 80 38 4.0 8.0 0.00 0.00 0.00 29 1004.7
20190720185514 80 84 3.0 8.0 0.00 0.00 0.00 30 1004.8
20190720185019 79 352 2.0 9.0 0.00 0.00 0.00 29 1004.8
20190720184521 80 90 3.0 9.0 0.00 0.00 0.00 29 1005.0
20190720184011 80 76 2.0 7.0 0.00 0.00 0.00 30 1005.0
20190720183517 79 94 1.0 8.0 0.00 0.00 0.00 29 1005.0
20190720183043 79 83 4.0 10.0 0.00 0.00 0.00 30 1005.1
20190720182514 79 120 4.0 10.0 0.00 0.00 0.00 31 1005.1
20190720182008 79 321 4.0 8.0 0.00 0.00 0.00 30 1005.1
20190720181545 78 58 3.0 8.0 0.00 0.00 0.00 30 1005.1
20190720181011 78 304 1.0 7.0 0.00 0.00 0.00 31 1005.1
20190720180506 78 67 3.0 7.0 0.00 0.00 0.00 31 1005.2
20190720180008 78 301 1.0 8.0 0.00 0.00 0.00 32 1005.2
20190720175509 78 50 5.0 8.0 0.00 0.00 0.00 32 1005.2
20190720175006 77 332 2.0 10.0 0.00 0.00 0.00 31 1005.2
20190720174505 77 11 2.0 7.0 0.00 0.00 0.00 32 1005.3
20190720174105 77 295 3.0 7.0 0.00 0.00 0.00 32 1005.3
20190720173607 77 306 2.0 6.0 0.00 0.00 0.00 32 1005.3
20190720173237 76 304 4.0 8.0 0.00 0.00 0.00 32 1005.3
20190720172559 76 53 4.0 8.0 0.00 0.00 0.00 32 1005.4
20190720172059 76 322 5.0 8.0 0.00 0.00 0.00 32 1005.4
20190720171651 76 296 3.0 7.0 0.00 0.00 0.00 32 1005.5
20190720171104 76 263 3.0 8.0 0.00 0.00 0.00 32 1005.5
20190720170603 76 331 1.0 4.0 0.00 0.00 0.00 33 1005.6
20190720170212 76 51 2.0 6.0 0.00 0.00 0.00 34 1005.6
20190720165556 75 1 0.0 6.0 0.00 0.00 0.00 33 1005.7
20190720165056 76 108 1.0 4.0 0.00 0.00 0.00 35 1005.7
20190720164628 75 121 1.0 6.0 0.00 0.00 0.00 35 1005.8
20190720164103 74 335 3.0 6.0 0.00 0.00 0.00 34 1005.8
20190720163554 74 118 1.0 4.0 0.00 0.00 0.00 35 1005.9
20190720163154 74 276 0.0 4.0 0.00 0.00 0.00 34 1005.9
20190720162601 74 321 1.0 4.0 0.00 0.00 0.00 34 1006.0
20190720162052 73 297 1.0 4.0 0.00 0.00 0.00 34 1006.0
20190720161632 73 298 0.0 5.0 0.00 0.00 0.00 34 1006.0
20190720161053 73 18 2.0 6.0 0.00 0.00 0.00 35 1006.0
20190720160557 73 36 3.0 6.0 0.00 0.00 0.00 35 1006.0
20190720160133 73 119 2.0 5.0 0.00 0.00 0.00 36 1006.1
20190720155550 73 356 2.0 5.0 0.00 0.00 0.00 35 1006.0
20190720155056 73 25 2.0 5.0 0.00 0.00 0.00 35 1006.0
20190720154627 73 56 0.0 4.0 0.00 0.00 0.00 36 1006.0
20190720154056 72 345 0.0 3.0 0.00 0.00 0.00 35 1006.0
20190720153545 72 297 1.0 5.0 0.00 0.00 0.00 35 1006.0
20190720153216 72 323 1.0 5.0 0.00 0.00 0.00 35 1006.0
20190720152554 72 333 2.0 5.0 0.00 0.00 0.00 35 1006.0
20190720152044 71 329 0.0 4.0 0.00 0.00 0.00 36 1005.9
20190720151627 71 288 2.0 4.0 0.00 0.00 0.00 36 1005.9
20190720151049 71 316 1.0 4.0 0.00 0.00 0.00 36 1005.8
20190720150542 71 311 1.0 3.0 0.00 0.00 0.00 36 1005.7
20190720150226 71 344 1.0 4.0 0.00 0.00 0.00 36 1005.7
20190720145541 71 325 1.0 4.0 0.00 0.00 0.00 36 1005.6
20190720145050 70 297 0.0 3.0 0.00 0.00 0.00 38 1005.6
20190720144656 70 299 1.0 3.0 0.00 0.00 0.00 37 1005.6
20190720144040 70 328 0.0 3.0 0.00 0.00 0.00 39 1005.6
20190720143543 70 281 0.0 4.0 0.00 0.00 0.00 39 1005.5
20190720143108 70 325 2.0 4.0 0.00 0.00 0.00 39 1005.5
20190720142545 70 354 2.0 4.0 0.00 0.00 0.00 40 1005.5
20190720142038 71 333 1.0 4.0 0.00 0.00 0.00 39 1005.4
20190720141558 71 26 0.0 2.0 0.00 0.00 0.00 39 1005.3
20190720141038 71 350 0.0 1.0 0.00 0.00 0.00 38 1005.4
20190720140538 70 351 0.0 1.0 0.00 0.00 0.00 43 1005.4
20190720140115 70 351 0.0 1.0 0.00 0.00 0.00 42 1005.3
20190720135538 70 233 0.0 0.0 0.00 0.00 0.00 40 1005.3
20190720135044 70 233 0.0 0.0 0.00 0.00 0.00 41 1005.3
20190720134610 68 233 0.0 0.0 0.00 0.00 0.00 43 1005.3
20190720134036 67 233 0.0 1.0 0.00 0.00 0.00 45 1005.3
20190720133535 66 233 0.0 2.0 0.00 0.00 0.00 45 1005.4
20190720133058 66 238 0.0 2.0 0.00 0.00 0.00 45 1005.4
20190720132535 65 248 0.0 3.0 0.00 0.00 0.00 45 1005.4
20190720132034 65 231 0.0 3.0 0.00 0.00 0.00 45 1005.4
20190720131623 64 266 0.0 2.0 0.00 0.00 0.00 45 1005.3
20190720131033 63 136 0.0 4.0 0.00 0.00 0.00 46 1005.4
20190720130534 63 170 0.0 4.0 0.00 0.00 0.00 46 1005.3
20190720130107 63 172 2.0 4.0 0.00 0.00 0.00 46 1005.4
20190720125546 63 207 2.0 4.0 0.00 0.00 0.00 47 1005.3
20190720125033 63 202 2.0 3.0 0.00 0.00 0.00 47 1005.2
20190720124646 64 217 0.0 3.0 0.00 0.00 0.00 46 1005.1
20190720124030 63 233 1.0 3.0 0.00 0.00 0.00 47 1005.1
20190720123530 63 217 1.0 4.0 0.00 0.00 0.00 47 1005.0
20190720123111 62 191 1.0 5.0 0.00 0.00 0.00 47 1005.0
20190720122530 62 204 2.0 4.0 0.00 0.00 0.00 47 1005.0
20190720122042 63 223 1.0 4.0 0.00 0.00 0.00 48 1004.9
20190720121616 62 214 1.0 4.0 0.00 0.00 0.00 49 1004.9
20190720121034 61 178 1.0 4.0 0.00 0.00 0.00 49 1004.9
20190720120537 62 212 1.0 4.0 0.00 0.00 0.00 49 1004.8
20190720120049 62 226 0.0 3.0 0.00 0.00 0.00 48 1004.8
20190720115532 62 232 0.0 3.0 0.00 0.00 0.00 48 1004.8
20190720115033 62 230 1.0 3.0 0.00 0.00 0.00 48 1004.8
20190720114544 62 182 1.0 3.0 0.00 0.00 0.00 47 1004.7
20190720114023 63 200 0.0 4.0 0.00 0.00 0.00 47 1004.7
20190720113523 63 231 2.0 6.0 0.00 0.00 0.00 47 1004.7
20190720113037 63 283 2.0 4.0 0.00 0.00 0.00 47 1004.6
20190720112522 62 307 0.0 3.0 0.00 0.00 0.00 47 1004.6
20190720112032 63 180 0.0 5.0 0.00 0.00 0.00 47 1004.5
20190720111556 62 221 1.0 5.0 0.00 0.00 0.00 47 1004.4
20190720111021 62 232 1.0 3.0 0.00 0.00 0.00 47 1004.3
20190720110529 62 225 1.0 2.0 0.00 0.00 0.00 47 1004.4
20190720110054 63 228 0.0 4.0 0.00 0.00 0.00 46 1004.4
20190720105519 64 229 1.0 4.0 0.00 0.00 0.00 45 1004.4
20190720105022 64 236 2.0 4.0 0.00 0.00 0.00 46 1004.5
20190720104527 64 179 0.0 3.0 0.00 0.00 0.00 46 1004.4
20190720104017 64 184 1.0 3.0 0.00 0.00 0.00 45 1004.4
20190720103516 64 161 2.0 3.0 0.00 0.00 0.00 45 1004.4
20190720103022 65 211 1.0 3.0 0.00 0.00 0.00 44 1004.4
20190720102512 66 189 0.0 3.0 0.00 0.00 0.00 43 1004.5
20190720102016 66 282 1.0 3.0 0.00 0.00 0.00 43 1004.4
20190720101515 67 193 1.0 5.0 0.00 0.00 0.00 41 1004.5
20190720101019 67 248 1.0 5.0 0.00 0.00 0.00 41 1004.5
20190720100511 67 233 2.0 8.0 0.00 0.00 0.00 41 1004.6
20190720100018 67 270 4.0 8.0 0.00 0.00 0.00 41 1004.6
20190720095519 67 238 5.0 7.0 0.00 0.00 0.00 41 1004.5
20190720095010 67 230 3.0 5.0 0.00 0.00 0.00 42 1004.6
20190720094521 67 243 3.0 5.0 0.00 0.00 0.00 42 1004.6
20190720094012 66 230 2.0 4.0 0.00 0.00 0.00 43 1004.6
20190720093512 66 231 2.0 4.0 0.00 0.00 0.00 43 1004.5
20190720093019 67 234 1.0 4.0 0.00 0.00 0.00 41 1004.5
20190720092509 67 234 2.0 5.0 0.00 0.00 0.00 41 1004.5
20190720092008 66 253 2.0 5.0 0.00 0.00 0.00 42 1004.6
20190720091517 66 189 0.0 4.0 0.00 0.00 0.00 41 1004.5
20190720091008 66 244 3.0 4.0 0.00 0.00 0.00 41 1004.5
20190720090507 66 171 1.0 4.0 0.00 0.00 0.00 40 1004.5
20190720090007 66 279 2.0 4.0 0.00 0.00 0.00 40 1004.5
20190720085510 66 285 0.0 3.0 0.00 0.00 0.00 40 1004.4
20190720085009 67 242 0.0 5.0 0.00 0.00 0.00 39 1004.4
20190720084521 67 196 1.0 5.0 0.00 0.00 0.00 39 1004.3
20190720084007 67 207 2.0 8.0 0.00 0.00 0.00 39 1004.3
20190720083506 66 224 2.0 8.0 0.00 0.00 0.00 40 1004.2
20190720083011 67 210 4.0 7.0 0.00 0.00 0.00 39 1004.2
20190720082506 67 169 2.0 5.0 0.00 0.00 0.00 40 1004.2
20190720082003 66 212 0.0 4.0 0.00 0.00 0.00 39 1004.3
20190720081508 68 184 0.0 4.0 0.00 0.00 0.00 38 1004.3
20190720081002 68 160 2.0 4.0 0.00 0.00 0.00 38 1004.2
20190720080502 68 155 3.0 4.0 0.00 0.00 0.00 38 1004.3
20190720080003 68 184 2.0 4.0 0.00 0.00 0.00 38 1004.2
20190720075501 69 229 1.0 4.0 0.00 0.00 0.00 38 1004.2
20190720074650 69 229 2.0 4.0 0.00 0.00 0.00 38 1004.2
20190720074102 67 233 3.0 4.0 0.00 0.00 0.00 39 1004.2
20190720073558 67 238 1.0 4.0 0.00 0.00 0.00 39 1004.2
20190720073208 68 209 1.0 4.0 0.00 0.00 0.00 38 1004.2
20190720072603 68 207 0.0 4.0 0.00 0.00 0.00 38 1004.1
20190720072056 68 226 2.0 4.0 0.00 0.00 0.00 37 1004.2
20190720071807 68 159 0.0 4.0 0.00 0.00 0.00 37 1004.0
20190720071053 69 197 0.0 4.0 0.00 0.00 0.00 36 1004.0
20190720070559 70 252 2.0 4.0 0.00 0.00 0.00 35 1004.1
20190720070304 70 98 0.0 4.0 0.00 0.00 0.00 35 1004.0
20190720065551 70 126 1.0 4.0 0.00 0.00 0.00 35 1004.0
20190720065057 70 144 1.0 4.0 0.00 0.00 0.00 36 1003.9
20190720064718 70 306 0.0 5.0 0.00 0.00 0.00 36 1003.9
20190720064050 70 191 2.0 5.0 0.00 0.00 0.00 36 1003.8
20190720063558 71 221 2.0 5.0 0.00 0.00 0.00 34 1003.8
20190720063143 71 222 1.0 3.0 0.00 0.00 0.00 35 1003.8
20190720062549 72 193 0.0 5.0 0.00 0.00 0.00 34 1003.8
20190720062049 72 257 4.0 6.0 0.00 0.00 0.00 34 1003.7
20190720061706 72 243 2.0 6.0 0.00 0.00 0.00 34 1003.6
20190720061049 72 225 3.0 6.0 0.00 0.00 0.00 33 1003.6
20190720060549 72 233 1.0 5.0 0.00 0.00 0.00 34 1003.6
20190720060206 72 225 2.0 6.0 0.00 0.00 0.00 34 1003.5
20190720055556 72 213 2.0 9.0 0.00 0.00 0.00 33 1003.4
20190720055050 73 222 3.0 9.0 0.00 0.00 0.00 33 1003.5
20190720054854 73 223 3.0 7.0 0.00 0.00 0.00 33 1003.4
20190720054051 73 233 2.0 6.0 0.00 0.00 0.00 33 1003.3
20190720053547 73 226 4.0 6.0 0.00 0.00 0.00 32 1003.3
20190720053104 73 207 1.0 5.0 0.00 0.00 0.00 33 1003.3
20190720052547 73 207 2.0 6.0 0.00 0.00 0.00 32 1003.2
20190720052047 73 241 3.0 6.0 0.00 0.00 0.00 32 1003.3
20190720051640 74 182 2.0 5.0 0.00 0.00 0.00 32 1003.2
20190720051046 74 215 2.0 6.0 0.00 0.00 0.00 32 1003.1
20190720050550 75 262 3.0 7.0 0.00 0.00 0.00 31 1003.1
20190720050145 75 226 3.0 7.0 0.00 0.00 0.00 31 1002.9
20190720045553 75 219 2.0 6.0 0.00 0.00 0.00 31 1002.9
20190720045047 75 270 2.0 6.0 0.00 0.00 0.00 31 1002.8
20190720044600 75 227 2.0 11.0 0.00 0.00 0.00 30 1002.8
20190720044046 75 267 5.0 0.0 0.00 0.00 0.00 30 1002.7
20190720043545 75 233 4.0 9.0 0.00 0.00 0.00 30 1002.6
20190720043151 75 279 5.0 9.0 0.00 0.00 0.00 30 1002.5
20190720042544 75 283 3.0 8.0 0.00 0.00 0.00 30 1002.4
20190720042045 76 268 5.0 8.0 0.00 0.00 0.00 30 1002.2
20190720041639 76 252 5.0 8.0 0.00 0.00 0.00 30 1002.2
20190720041048 76 228 3.0 9.0 0.00 0.00 0.00 29 1002.0
20190720040545 76 233 2.0 9.0 0.00 0.00 0.00 29 1001.9
20190720040229 76 245 3.0 6.0 0.00 0.00 0.00 29 1001.8
20190720035544 76 256 2.0 5.0 0.00 0.00 0.00 29 1001.7
20190720035058 75 257 3.0 6.0 0.00 0.00 0.00 28 1001.5
20190720034709 76 241 5.0 6.0 0.00 0.00 0.00 28 1001.4
20190720034044 77 244 4.0 6.0 0.00 0.00 0.00 27 1001.3
20190720033542 77 243 4.0 6.0 0.00 0.00 0.00 27 1001.2
20190720033153 77 239 4.0 6.0 0.00 0.00 0.00 27 1001.1
20190720032541 77 240 4.0 6.0 0.00 0.00 0.00 27 1001.1
20190720032044 77 244 5.0 6.0 0.00 0.00 0.00 27 1001.0
20190720031558 77 243 3.0 4.0 0.00 0.00 0.00 27 1001.0
20190720031040 77 258 2.0 4.0 0.00 0.00 0.00 27 1000.9
20190720030540 78 237 0.0 3.0 0.00 0.00 0.00 26 1000.9
20190720030108 79 237 0.0 5.0 0.00 0.00 0.00 26 1000.9
20190720025540 79 236 3.0 6.0 0.00 0.00 0.00 25 1000.8
20190720025040 80 231 4.0 6.0 0.00 0.00 0.00 24 1000.8